Weather History for KAZO - January, 2014

Change the Weather History Date:

Monday, January 6, 2014

  Actual Average Record
Temperature  
Mean Temperature 3 °F 25 °F  
Max Temperature 17 °F 31 °F 55 °F (2008)
Min Temperature -12 °F 18 °F -12 °F (2014)
Degree Days  
Heating Degree Days 62 40  
Month to date heating degree days 145 240  
Since 1 July heating degree days 2652 2691  
Cooling Degree Days 0 0  
Month to date cooling degree days 0 0  
Year to date cooling degree days 0 0  
Moisture  
Dew Point -5 °F    
Average Humidity 79    
Maximum Humidity 88    
Minimum Humidity 69    
Precipitation  
Precipitation T in 0.06 in 0.40 in (1962)
Month to date precipitation 0.28 0.37  
Year to date precipitation 0.28 0.37  
Sea Level Pressure  
Sea Level Pressure 29.98 in    
Wind  
Wind Speed 18 mph (West)    
Max Wind Speed 26 mph    
Max Gust Speed 38 mph    
Visibility 2 miles    
Events Snow    
T = Trace of Precipitation, MM = Missing Value Source: NWS Daily Summary

Daily Weather History Graph

Daily Weather History Graph

Search for Another Location

Airport or City:

Trip Planner

Search our weather history database for the weather conditions in past years. The results will help you decide how hot, cold, wet, or windy it might be!

Date:

Astronomy

Jan. 06, 2014 Rise Set
Actual Time 8:10 AM EST 5:25 PM EST
Civil Twilight 7:39 AM EST 5:57 PM EST
Nautical Twilight 7:04 AM EST 6:32 PM EST
Astronomical Twilight 6:30 AM EST 7:05 PM EST
Moon 11:18 AM EST (1/6) No Moon Set
Length of Visible Light 10h 17m
Length of Day
9h 14m
Waxing Crescent, 34% of the Moon is Illuminated
Jan 6
Waxing Crescent
Jan 7
First Quarter
Jan 15
Full
Jan 24
Last Quarter
Jan 30
New

Hourly Weather History & Observations

Time (EST) Temp. Windchill Dew Point Humidity Pressure Visibility Wind Dir Wind Speed Gust Speed Precip Events Conditions
12:09 AM 17.6 °F 3.2 °F 12.2 °F 79% 29.76 in 3.0 mi NNW 15.0 mph - 0.00 in Snow Light Snow
12:38 AM 15.8 °F 2.1 °F 10.4 °F 79% 29.76 in 6.0 mi NW 12.7 mph - 0.00 in Snow Light Snow
12:53 AM 16.0 °F 1.7 °F 10.0 °F 77% 29.81 in 9.0 mi NW 13.8 mph - 0.00 in Snow Light Snow
1:53 AM 15.1 °F 2.5 °F 10.0 °F 80% 29.82 in 9.0 mi NW 10.4 mph - 0.00 in Snow Light Snow
2:53 AM 16.0 °F 2.3 °F 12.0 °F 84% 29.84 in 3.0 mi West 12.7 mph - 0.00 in Snow Light Snow
3:18 AM 15.8 °F 0.3 °F 10.4 °F 79% 29.80 in 4.0 mi WNW 16.1 mph 23.0 mph 0.00 in Snow Light Snow
3:36 AM 15.8 °F 0.3 °F 8.6 °F 73% 29.81 in 2.5 mi WNW 16.1 mph 28.8 mph 0.00 in Snow Light Snow
3:53 AM 14.0 °F -3.0 °F 8.1 °F 77% 29.86 in 2.5 mi WNW 18.4 mph 27.6 mph 0.00 in Snow Light Snow
4:00 AM 14.0 °F -3.0 °F 8.6 °F 79% 29.81 in 3.0 mi West 18.4 mph 25.3 mph 0.00 in Snow Light Snow
4:20 AM 12.2 °F -4.8 °F 6.8 °F 79% 29.82 in 2.0 mi West 17.3 mph 27.6 mph 0.00 in Snow Light Snow
4:49 AM 10.4 °F -9.5 °F 6.8 °F 85% 29.83 in 1.2 mi West 23.0 mph 29.9 mph 0.00 in Snow Light Snow
4:53 AM 10.0 °F -9.1 °F 5.0 °F 80% 29.88 in 1.0 mi WNW 20.7 mph 29.9 mph 0.00 in Snow Light Snow
5:53 AM 7.0 °F -12.6 °F 1.0 °F 77% 29.91 in 1.8 mi West 19.6 mph 29.9 mph 0.00 in Snow Light Snow
6:53 AM 6.1 °F -14.3 °F -0.0 °F 76% 29.93 in 1.8 mi West 20.7 mph 27.6 mph 0.00 in Snow Light Snow
7:31 AM 3.2 °F -17.1 °F -2.2 °F 78% 29.90 in 1.0 mi West 18.4 mph 27.6 mph 0.00 in Snow Light Snow
7:53 AM 3.0 °F -15.5 °F -2.9 °F 76% 29.97 in 1.5 mi West 15.0 mph 24.2 mph 0.00 in Snow Light Snow
8:39 AM 1.4 °F -21.4 °F -5.8 °F 72% 29.93 in 0.8 mi West 23.0 mph 31.1 mph 0.00 in Snow Light Snow
8:53 AM 1.0 °F -19.3 °F -6.0 °F 72% 30.00 in 1.0 mi West 17.3 mph 31.1 mph 0.00 in Snow Light Snow
9:08 AM -0.4 °F -21.2 °F -7.6 °F 72% 29.94 in 2.5 mi West 17.3 mph 28.8 mph 0.00 in Snow Light Snow
9:15 AM -0.4 °F -20.5 °F -7.6 °F 72% 29.94 in 4.0 mi West 16.1 mph 27.6 mph 0.00 in Snow Blowing Snow
9:30 AM -0.4 °F -21.2 °F -7.6 °F 72% 29.95 in 2.0 mi West 17.3 mph - 0.00 in Snow Light Snow
9:39 AM -0.4 °F -21.7 °F -7.6 °F 72% 29.95 in 1.5 mi West 18.4 mph 27.6 mph 0.00 in Snow Light Snow
9:53 AM 1.0 °F -19.3 °F -7.1 °F 69% 30.01 in 1.2 mi West 17.3 mph 29.9 mph 0.00 in Snow Light Snow
10:53 AM -0.0 °F -22.4 °F -6.0 °F 76% 30.03 in 0.5 mi West 20.7 mph 29.9 mph 0.00 in Snow Snow
11:33 AM -0.4 °F -21.7 °F -7.6 °F 72% 29.96 in 1.5 mi West 18.4 mph 34.5 mph 0.00 in Snow Blowing Snow
11:53 AM -0.0 °F -24.3 °F -8.0 °F 69% 30.02 in 1.5 mi West 25.3 mph 38.0 mph 0.00 in Snow Blowing Snow
12:20 PM 1.4 °F -21.0 °F -7.6 °F 66% 29.96 in 1.2 mi West 21.9 mph 29.9 mph 0.00 in Snow Blowing Snow
12:53 PM 1.0 °F -19.3 °F -7.1 °F 69% 30.02 in 1.0 mi WSW 17.3 mph 31.1 mph 0.00 in Snow Blowing Snow
1:30 PM -0.4 °F -19.9 °F -7.6 °F 72% 29.96 in 0.5 mi WSW 15.0 mph 24.2 mph N/A Snow Blowing Snow
1:53 PM -2.0 °F -26.0 °F -8.0 °F 76% 30.04 in 0.2 mi WSW 23.0 mph 32.2 mph 0.00 in Snow Blowing Snow
2:53 PM -2.9 °F -26.1 °F -9.9 °F 72% 30.07 in 0.2 mi West 20.7 mph 33.4 mph N/A Snow Blowing Snow
3:00 PM -2.2 °F -26.7 °F -11.2 °F 66% 30.01 in 0.8 mi WSW 24.2 mph 33.4 mph N/A Snow Blowing Snow
3:32 PM -4.0 °F -27.0 °F -11.2 °F 71% 30.02 in 0.8 mi WSW 19.6 mph 26.5 mph N/A Snow Blowing Snow
3:53 PM -5.1 °F -27.8 °F -11.0 °F 76% 30.10 in 0.8 mi WSW 18.4 mph 26.5 mph N/A Snow Blowing Snow
4:19 PM -5.8 °F -28.8 °F -11.2 °F 77% 30.05 in 0.8 mi WSW 18.4 mph 27.6 mph 0.00 in Snow Light Snow
4:53 PM -8.0 °F -31.6 °F -15.0 °F 71% 30.14 in 0.8 mi SW 18.4 mph 25.3 mph 0.00 in Snow Light Snow
5:53 PM -9.9 °F -34.8 °F -16.1 °F 74% 30.16 in 0.8 mi SW 19.6 mph 27.6 mph 0.00 in Snow Light Snow
6:53 PM -11.0 °F -34.9 °F -17.0 °F 75% 30.17 in 1.0 mi SW 17.3 mph - 0.00 in Snow Light Snow
7:53 PM -11.9 °F -36.1 °F -18.0 °F 74% 30.18 in 1.0 mi SW 17.3 mph - 0.00 in Snow Light Snow
8:53 PM -11.9 °F -35.4 °F -18.0 °F 74% 30.19 in 1.0 mi SW 16.1 mph - 0.00 in Snow Light Snow
9:53 PM -11.0 °F -33.5 °F -17.0 °F 75% 30.18 in 1.0 mi SW 15.0 mph 23.0 mph 0.00 in Snow Light Snow
10:04 PM -9.4 °F -31.4 °F -16.6 °F 71% 30.10 in 1.0 mi SW 15.0 mph 23.0 mph 0.00 in Snow Light Snow
10:43 PM -9.4 °F -31.4 °F -14.8 °F 77% 30.09 in 1.0 mi SW 15.0 mph - 0.00 in Snow Light Snow
10:53 PM -9.0 °F -31.7 °F -15.0 °F 75% 30.17 in 1.0 mi SW 16.1 mph - 0.00 in Snow Light Snow
11:53 PM -9.0 °F -30.9 °F -15.0 °F 75% 30.17 in 1.2 mi SW 15.0 mph - 0.00 in Snow Light Snow